STARLINK-4726, 53802

Orbit data source: Space-Track

STARLINK-4726, 53802 is a payload satellite owned by SpaceX/Seattle (US) in LEO that was launched on Sun, 11 Sep 2022 UTC via an FALCON 9 launch vehicle from the Air Force Eastern Test Range (AFETR). Payload-class satellites include a variety of spacecraft equipped with specific instruments for various scientific and technological missions. These include communications satellites like Starlink; space stations such as the ISS; scientific satellites like the Hubble; Earth observation satellites from companies like Planet Labs, Umbra, and HawkEye 360; GPS; miniature CubeSats for education and research; and military/defense satellites.

Loading next visibility...
Identifier
53802, 2022-111AF
Orbit
LEO
Country
Flag of USUS
Related business
Manufacturer
SpaceX/Seattle
Mission
Operational Commercial Communications
Bus & Motor
STARLINK, Unknown motor
Mass
305 kg wet, ~290 kg dry
Launch date (UTC)
2022-09-11 (3 years ago)
Launch vehicle
FALCON 9
Launch site
Air Force Eastern Test Range (AFETR)
Object type
Payload
Rocket body
Debris
Shape & HBR
Box + 1 Pan, 10.1 m
Radar Cross Section
13.562 m², Large (>1 m²)

Expand to show TLE details & history
Last TLE update: 15 hours ago

TLE from 15 hours ago
0 STARLINK-4726
1 53802U 22111AF  25288.46077185  .00001910  00000-0  13803-3 0  9997
2 53802  53.2167 195.9465 0001426  86.0330 274.0825 15.08840276171891
Epoch: 2025-10-15T11:03Z
TLE epoch observation values (Epoch: 2025-10-15T11:03:30.687Z)
Latitude
-0.00005°
Longitude
5.83408°
Altitude
540.57 km
Speed
7.593 km/s
True Right ascension
13h 03m 47s
True Declination
0° 00' 00"
Sunlit
Object was in daylight at epoch
Visualization orbit readout
Latitude
Unknown
Longitude
Unknown
Altitude
Unknown
Speed
Unknown
Apparent Right ascension
Unknown
Apparent Declination
Unknown
Sunlit
N/A
Visualization observer readout
Local Sidereal Time
21:03:01
Azimuth
Unknown
Elevation
Unknown
Doppler factor
Unknown
Orbital elements
Apogee altitude
540.974 km
Perigee altitude
539.001 km
Semi-major axis
6,918.125 km
Eccentricity
0.00014
Inclination
53.2167°
RAAN
195.9465°
Arg. of periapsis
86.033°
True anomaly
274.0662°
Mean anomaly
274.0825°
Eccentric anomaly
274.07435°
Mean motion
3.7719 °/min
Orbital period
95.44 mins
BSTAR
0.00013803
Loading maneuver chart data...
Computing Atmospheric mass density...
Loading historical data...
Loading historical data...
Loading historical data...
Loading historical data...
Loading historical data...
Loading historical data...
Loading historical data...

Documentation

Showing up to 5 results
|